Location: Big Sable Point
(44.0575°N, 86.5149°W)
Time: 21:49:28
(UTC-05:00)

OTV 5 (USA 277) - Visible Passes

Search period start: 21 February 2019 00:00
Search period end: 03 March 2019 00:00
Orbit: 342 x 346 km, 54.5° (Epoch: 17 February)

Date Brightness Start Highest point End Pass type
(mag) Time Alt. Az. Time Alt. Az. Time Alt. Az.
23 Feb ? 19:41:47 10° SSW 19:44:18 29° SE 19:44:18 29° SE visible
24 Feb ? 20:05:01 10° SW 20:07:48 81° WNW 20:07:48 81° WNW visible
25 Feb ? 18:54:16 10° SSW 18:56:47 27° SE 18:59:18 10° ENE visible
25 Feb ? 20:29:02 10° W 20:31:10 28° NW 20:31:10 28° NW visible
26 Feb ? 19:17:26 10° SW 19:20:19 86° NW 19:22:57 12° NE visible
26 Feb ? 20:53:37 10° WNW 20:54:24 14° NW 20:54:24 14° NW visible
27 Feb ? 19:41:26 10° W 19:44:04 31° NNW 19:46:06 14° NNE visible
28 Feb ? 20:06:01 10° WNW 20:08:01 17° NNW 20:09:09 14° N visible
01 Mar ? 20:30:53 10° NW 20:32:06 12° N 20:32:07 12° N visible
02 Mar ? 19:18:24 10° WNW 19:20:25 17° NNW 19:22:28 10° NNE visible
